Temp
-15 -15 -14 -14 -13 -14 -13 -14 -14 -13 -12 -11 -11 -11 -11 -10 -10 -10 -10 -10 -10 -10 -10 -10 -10 -10 -9 -9 -10 -9 -9 -9 -9 -8 -8 -8 -8 -8 -8 -8 -9 -9 -9 -9
-16 -14 -14 -14 -14 -14 -14 -14 -14 -13 -13 -12 -12 -10 -11 -10 -10 -10 -10 -10 -10 -10 -10 -10 -10 -10 -10 -10 -10 -10 -10 -9 -9 -9 -8 -8 -8 -8 -8 -9 -9 -9 -9 -9
-15 -14 -15 -15 -14 -15 -15 -14 -14 -14 -14 -13 -12 -10 -11 -10 -10 -10 -9 -9 -10 -10 -10 -10 -9 -10 -10 -10 -10 -10 -9 -9 -9 -9 -9 -9 -9 -9 -9 -9 -9 -9 -9 -9
-16 -15 -15 -15 -14 -15 -15 -15 -14 -15 -14 -13 -12 -10 -10 -10 -9 -9 -9 -9 -10 -10 -10 -10 -9 -9 -10 -9 -9 -9 -10 -10 -9 -9 -9 -10 -10 -10 -10 -10 -10 -10 -10 -10
-16 -15 -16 -16 -15 -16 -15 -15 -15 -15 -14 -14 -13 -12 -9 -11 -9 -9 -10 -10 -10 -10 -10 -10 -9 -9 -9 -9 -9 -9 -9 -10 -10 -9 -9 -9 -10 -10 -10 -10 -10 -10 -10 -10
-17 -17 -17 -16 -17 -17 -16 -15 -15 -15 -14 -13 -13 -12 -9 -10 -10 -10 -10 -10 -10 -10 -10 -10 -10 -10 -9 -9 -9 -9 -9 -10 -10 -10 -10 -9 -9 -10 -10 -10 -10 -10 -10 -10
-18 -17 -17 -17 -17 -17 -16 -15 -15 -15 -15 -12 -13 -12 -9 -11 -11 -11 -12 -11 -11 -10 -10 -10 -10 -10 -9 -9 -9 -9 -9 -9 -9 -9 -10 -10 -10 -10 -9 -10 -10 -10 -10 -10
-18 -18 -17 -16 -16 -16 -17 -17 -17 -16 -14 -14 -14 -13 -10 -12 -11 -12 -12 -12 -12 -11 -10 -10 -10 -9 -9 -9 -9 -9 -9 -10 -9 -9 -9 -10 -10 -10 -10 -10 -10 -10 -10 -10
-18 -18 -17 -17 -17 -17 -17 -17 -17 -17 -15 -14 -14 -13 -12 -12 -12 -11 -12 -12 -12 -11 -11 -10 -10 -10 -10 -10 -9 -9 -9 -9 -9 -9 -9 -9 -10 -10 -10 -10 -10 -10 -10 -10
-19 -18 -18 -18 -18 -17 -17 -17 -17 -17 -17 -16 -13 -13 -12 -12 -12 -12 -12 -11 -12 -11 -11 -11 -11 -10 -10 -10 -10 -10 -10 -9 -9 -9 -10 -10 -10 -10 -10 -10 -10 -10 -10 -10
-20 -20 -19 -18 -18 -18 -18 -18 -18 -17 -17 -16 -14 -13 -12 -12 -12 -13 -13 -13 -13 -12 -12 -11 -11 -11 -10 -11 -11 -11 -10 -10 -10 -10 -10 -10 -10 -10 -10 -10 -10 -10 -10 -11
-20 -19 -19 -19 -18 -19 -19 -18 -19 -18 -17 -17 -16 -12 -12 -12 -13 -13 -13 -13 -13 -13 -13 -13 -12 -12 -11 -10 -10 -11 -11 -10 -11 -10 -10 -10 -10 -10 -10 -10 -10 -10 -11 -11
-20 -20 -20 -20 -19 -18 -18 -18 -18 -18 -18 -17 -17 -12 -12 -12 -13 -13 -13 -14 -14 -14 -13 -13 -13 -12 -12 -11 -11 -11 -11 -11 -11 -11 -11 -11 -10 -10 -11 -11 -11 -11 -11 -11
-21 -21 -20 -20 -19 -19 -19 -19 -19 -19 -19 -17 -17 -14 -13 -13 -13 -14 -14 -14 -13 -13 -13 -13 -13 -13 -13 -12 -11 -12 -12 -11 -11 -11 -11 -11 -11 -11 -11 -11 -11 -11 -11 -11
-21 -21 -20 -20 -20 -20 -19 -19 -20 -19 -18 -19 -16 -16 -12 -15 -14 -14 -14 -13 -14 -13 -13 -13 -13 -12 -12 -12 -12 -12 -12 -12 -12 -12 -12 -11 -11 -11 -12 -12 -12 -12 -12 -12
-21 -21 -21 -20 -21 -21 -20 -20 -19 -19 -18 -18 -16 -16 -12 -16 -15 -15 -14 -14 -14 -14 -14 -13 -13 -12 -12 -12 -12 -11 -12 -12 -12 -12 -12 -12 -12 -12 -12 -12 -12 -12 -12 -12
-22 -22 -22 -21 -21 -22 -21 -19 -19 -19 -19 -18 -17 -15 -15 -16 -15 -15 -15 -15 -14 -15 -15 -14 -14 -14 -14 -13 -13 -12 -12 -12 -12 -12 -12 -12 -12 -12 -12 -12 -13 -13 -13 -14
-23 -23 -23 -22 -22 -22 -19 -20 -19 -20 -19 -19 -18 -16 -15 -16 -15 -15 -15 -15 -15 -15 -15 -15 -15 -15 -15 -15 -15 -14 -13 -13 -13 -12 -13 -13 -13 -13 -13 -13 -14 -14 -14 -14
-24 -24 -23 -23 -22 -22 -20 -19 -19 -20 -19 -20 -18 -16 -16 -17 -16 -15 -15 -16 -15 -15 -15 -15 -15 -16 -16 -15 -15 -15 -14 -15 -15 -14 -13 -14 -14 -14 -14 -14 -14 -14 -14 -15
-24 -24 -24 -23 -24 -23 -19 -21 -22 -22 -19 -19 -19 -18 -18 -18 -17 -14 -17 -17 -16 -15 -15 -15 -15 -16 -16 -16 -15 -14 -14 -15 -14 -15 -15 -14 -14 -15 -15 -15 -15 -15 -15 -15
-24 -24 -24 -24 -24 -23 -20 -22 -23 -23 -17 -21 -22 -19 -18 -18 -17 -15 -16 -16 -16 -16 -16 -16 -16 -15 -15 -16 -15 -14 -14 -14 -15 -15 -16 -16 -16 -15 -16 -16 -16 -16 -16 -16
-25 -25 -24 -25 -25 -22 -21 -23 -24 -23 -20 -22 -22 -20 -19 -18 -17 -16 -16 -16 -16 -16 -16 -16 -16 -16 -15 -15 -16 -16 -15 -15 -16 -15 -15 -15 -16 -16 -15 -15 -16 -16 -16 -16
-25 -25 -25 -25 -25 -23 -23 -23 -24 -23 -22 -22 -22 -22 -20 -18 -18 -18 -17 -17 -16 -16 -16 -16 -16 -16 -16 -16 -15 -15 -15 -16 -16 -16 -16 -16 -16 -16 -15 -15 -16 -17 -17 -17
-25 -25 -25 -25 -24 -24 -24 -24 -24 -24 -23 -22 -22 -22 -22 -20 -19 -18 -18 -17 -17 -17 -16 -16 -17 -16 -16 -16 -16 -16 -16 -16 -16 -16 -16 -16 -16 -16 -15 -16 -16 -17 -17 -17
-26 -26 -26 -26 -25 -25 -24 -24 -24 -24 -24 -23 -23 -22 -22 -22 -21 -21 -19 -19 -18 -18 -17 -17 -18 -17 -18 -18 -18 -18 -18 -17 -17 -16 -17 -17 -17 -17 -16 -16 -17 -17 -17 -17
-27 -26 -26 -26 -25 -25 -24 -24 -25 -24 -24 -24 -24 -23 -23 -22 -22 -22 -21 -20 -19 -19 -19 -19 -18 -18 -18 -18 -19 -19 -18 -18 -18 -18 -17 -17 -17 -17 -17 -17 -17 -17 -17 -17
Height
5747 5753 5761 5764 5769 5772 5776 5782 5790 5795 5799 5802 5807 5813 5825 5824 5826 5831 5835 5838 5839 5841 5840 5843 5843 5844 5846 5847 5847 5847 5848 5848 5849 5850 5850 5850 5849 5848 5848 5848 5848 5848 5846 5845
5735 5744 5759 5755 5759 5763 5767 5773 5778 5783 5788 5792 5796 5801 5816 5817 5819 5825 5830 5833 5835 5836 5836 5837 5838 5840 5841 5841 5843 5843 5844 5845 5844 5844 5844 5845 5845 5845 5844 5843 5842 5841 5841 5841
5731 5741 5742 5744 5750 5754 5760 5766 5770 5773 5778 5782 5787 5789 5804 5811 5812 5816 5821 5826 5829 5832 5832 5832 5832 5834 5835 5837 5837 5837 5837 5839 5839 5838 5840 5840 5840 5840 5838 5837 5837 5837 5837 5837
5719 5727 5732 5734 5743 5746 5752 5758 5761 5766 5770 5773 5776 5776 5790 5802 5804 5809 5815 5819 5824 5826 5826 5825 5825 5827 5829 5829 5829 5830 5831 5832 5833 5833 5834 5834 5834 5834 5832 5832 5832 5831 5832 5831
5713 5721 5725 5728 5738 5739 5745 5750 5753 5757 5760 5762 5769 5767 5787 5792 5798 5805 5809 5812 5815 5816 5818 5818 5819 5820 5822 5823 5824 5824 5824 5826 5826 5826 5827 5827 5828 5827 5825 5825 5825 5825 5824 5824
5702 5711 5713 5723 5725 5730 5734 5742 5745 5748 5750 5753 5762 5760 5771 5787 5793 5795 5798 5803 5805 5807 5809 5811 5813 5814 5816 5816 5818 5818 5819 5819 5819 5819 5820 5822 5821 5820 5819 5818 5817 5817 5817 5817
5693 5701 5706 5712 5717 5722 5727 5731 5736 5739 5741 5752 5753 5752 5764 5781 5783 5788 5789 5791 5795 5798 5800 5802 5805 5806 5807 5809 5809 5809 5811 5813 5812 5812 5813 5813 5814 5813 5814 5812 5811 5810 5810 5810
5686 5691 5697 5707 5713 5719 5721 5722 5725 5730 5736 5744 5742 5747 5757 5770 5774 5778 5780 5782 5784 5786 5789 5792 5795 5797 5799 5801 5801 5801 5803 5805 5804 5805 5805 5805 5804 5805 5806 5805 5804 5803 5803 5803
5680 5683 5691 5699 5703 5708 5710 5712 5720 5722 5725 5728 5733 5745 5749 5759 5766 5769 5772 5774 5774 5777 5780 5784 5786 5789 5790 5791 5792 5793 5794 5795 5796 5797 5796 5797 5796 5797 5797 5796 5795 5796 5795 5794
5671 5677 5683 5688 5693 5696 5702 5707 5710 5712 5714 5717 5726 5734 5742 5750 5758 5760 5760 5763 5766 5768 5770 5772 5775 5776 5778 5780 5782 5783 5785 5786 5786 5786 5787 5788 5788 5788 5788 5788 5788 5788 5787 5786
5663 5672 5676 5678 5683 5690 5695 5699 5702 5705 5708 5708 5714 5725 5736 5741 5748 5752 5752 5753 5755 5758 5759 5761 5761 5762 5763 5765 5768 5771 5773 5775 5776 5775 5776 5777 5778 5779 5779 5780 5780 5779 5777 5776
5657 5658 5663 5668 5674 5679 5682 5690 5694 5696 5701 5700 5701 5711 5730 5732 5737 5741 5743 5743 5744 5745 5746 5746 5747 5748 5750 5752 5754 5756 5759 5761 5762 5764 5765 5766 5767 5768 5769 5770 5769 5768 5766 5765
5644 5646 5651 5654 5661 5669 5674 5681 5684 5689 5685 5691 5693 5710 5719 5723 5724 5727 5728 5729 5731 5733 5733 5733 5734 5734 5736 5738 5740 5741 5744 5747 5749 5751 5754 5755 5756 5757 5757 5756 5756 5755 5754 5753
5629 5634 5638 5648 5661 5658 5661 5669 5674 5675 5675 5687 5683 5701 5710 5710 5710 5711 5714 5717 5722 5723 5719 5719 5720 5722 5724 5724 5726 5727 5730 5732 5735 5737 5739 5741 5741 5742 5743 5743 5743 5743 5741 5740
5618 5625 5632 5642 5641 5643 5649 5654 5659 5660 5672 5665 5684 5683 5701 5698 5693 5697 5703 5708 5706 5705 5707 5707 5709 5712 5713 5714 5714 5715 5716 5719 5720 5721 5723 5725 5727 5728 5730 5730 5730 5729 5728 5727
5611 5617 5622 5627 5629 5631 5634 5641 5647 5652 5656 5654 5670 5670 5695 5682 5682 5686 5690 5690 5692 5694 5695 5695 5696 5697 5698 5699 5702 5703 5702 5703 5706 5707 5710 5712 5713 5714 5715 5715 5715 5715 5715 5714
5603 5608 5613 5617 5619 5618 5618 5638 5639 5642 5645 5653 5650 5671 5678 5670 5668 5675 5679 5680 5681 5683 5683 5684 5684 5685 5685 5686 5686 5688 5689 5691 5692 5695 5696 5698 5698 5699 5699 5699 5700 5700 5700 5700
5594 5598 5601 5606 5606 5602 5624 5624 5629 5629 5634 5636 5641 5656 5664 5654 5655 5663 5666 5666 5667 5668 5669 5670 5673 5673 5670 5670 5674 5675 5676 5676 5677 5680 5682 5682 5683 5685 5686 5686 5686 5686 5687 5686
5587 5590 5592 5593 5595 5599 5609 5616 5619 5616 5621 5625 5634 5644 5644 5640 5641 5651 5647 5650 5649 5652 5655 5658 5659 5658 5658 5661 5658 5658 5662 5663 5665 5667 5665 5666 5668 5669 5671 5672 5672 5672 5672 5672
5578 5580 5582 5585 5584 5586 5608 5605 5602 5596 5607 5621 5620 5622 5620 5617 5620 5646 5628 5630 5633 5635 5640 5643 5644 5646 5646 5647 5645 5647 5651 5650 5653 5653 5653 5654 5654 5654 5655 5656 5657 5657 5657 5657
5570 5570 5572 5574 5573 5577 5590 5592 5588 5584 5612 5597 5593 5603 5604 5605 5612 5625 5611 5616 5617 5621 5624 5624 5625 5629 5633 5630 5630 5633 5635 5640 5640 5635 5637 5639 5641 5642 5641 5642 5643 5644 5644 5644
5561 5560 5563 5563 5563 5568 5576 5578 5576 5581 5585 5575 5579 5586 5591 5592 5596 5601 5599 5603 5601 5602 5605 5606 5606 5611 5613 5616 5613 5615 5620 5623 5621 5622 5623 5625 5626 5627 5627 5628 5628 5629 5628 5628
5549 5553 5551 5550 5551 5567 5560 5561 5558 5559 5567 5563 5564 5567 5571 5577 5580 5580 5584 5585 5585 5585 5583 5583 5584 5591 5595 5595 5596 5598 5604 5600 5602 5605 5609 5611 5611 5611 5612 5612 5612 5612 5613 5613
5541 5540 5537 5538 5546 5550 5553 5541 5540 5544 5549 5548 5547 5549 5552 5555 5558 5560 5562 5565 5567 5566 5566 5563 5562 5568 5572 5573 5573 5576 5580 5580 5581 5584 5589 5594 5595 5595 5595 5594 5595 5596 5596 5596
5526 5525 5525 5523 5531 5531 5537 5523 5525 5524 5527 5531 5530 5529 5531 5534 5539 5537 5541 5543 5546 5547 5548 5543 5545 5546 5550 5549 5552 5554 5559 5561 5562 5564 5568 5572 5575 5576 5577 5577 5578 5579 5579 5580
5510 5509 5507 5509 5510 5511 5518 5511 5507 5508 5510 5509 5510 5513 5511 5510 5515 5517 5521 5522 5524 5526 5528 5528 5528 5528 5531 5532 5533 5536 5540 5542 5544 5548 5551 5554 5556 5558 5559 5559 5561 5562 5562 5562
Wind_Speed
58 58 43 54 47 42 51 52 59 54 52 54 52 49 39 42 41 38 34 29 25 25 27 26 28 29 28 29 31 30 28 25 21 20 20 19 21 21 20 20 21 21 24 23
51 60 50 42 50 47 47 48 52 56 55 54 52 55 43 45 44 40 38 35 28 27 26 23 26 26 28 29 30 30 30 28 25 24 25 23 24 23 22 22 23 24 25 23
56 56 61 46 44 37 39 51 44 51 50 50 52 57 47 47 48 43 40 38 34 29 29 27 24 26 27 26 30 30 30 30 28 28 29 27 26 25 25 25 27 26 23 22
61 66 70 68 50 44 34 29 48 50 47 49 53 58 54 50 50 47 41 39 34 33 31 32 28 25 24 25 28 27 26 28 27 27 26 28 27 26 27 26 27 26 26 26
60 62 52 63 68 57 48 36 40 51 53 51 49 55 47 46 49 47 41 38 36 36 35 35 33 29 27 26 23 24 23 23 25 25 26 26 24 25 27 25 26 26 27 26
56 51 50 49 51 52 52 54 44 42 45 50 45 48 51 39 38 45 45 40 38 38 37 35 35 31 29 29 29 28 28 28 29 28 28 27 28 29 28 26 27 27 27 27
47 46 44 43 43 48 53 56 57 52 46 49 43 49 50 33 38 38 40 38 41 39 39 38 38 37 37 34 33 33 31 30 31 30 27 26 28 31 29 30 29 29 28 28
41 47 47 48 44 42 40 42 49 52 54 44 44 46 45 34 34 38 39 36 38 39 41 41 39 40 39 36 36 35 34 34 35 33 30 30 30 32 32 32 31 31 31 32
57 46 47 40 40 41 42 41 39 46 50 59 55 44 48 42 36 37 36 34 39 40 38 38 41 41 41 41 38 38 37 37 36 35 36 34 33 33 34 35 36 34 35 37
50 52 44 46 46 44 40 40 38 40 44 50 55 51 48 44 39 41 44 43 42 43 44 44 44 41 43 46 44 42 41 39 40 40 39 39 38 37 38 39 39 39 40 40
54 49 50 49 47 43 41 37 36 36 44 49 58 54 51 50 44 37 36 37 38 39 40 44 45 48 48 47 47 47 46 46 45 45 44 42 42 41 42 41 42 42 44 45
54 56 57 56 54 52 51 47 40 36 32 41 50 64 51 53 42 41 38 38 41 39 42 42 43 46 48 50 51 49 49 50 49 49 48 45 46 45 45 45 46 47 49 49
58 59 58 59 59 58 56 53 52 51 57 53 54 59 53 51 48 43 39 42 44 43 47 43 46 46 48 51 52 54 53 53 53 52 51 49 49 49 49 50 52 52 51 52
57 58 61 60 56 60 61 56 52 54 56 56 60 47 43 47 52 51 44 41 47 50 52 50 50 52 47 49 51 54 57 56 55 55 53 52 51 51 52 54 55 55 54 55
56 57 59 57 58 59 59 58 56 57 53 59 53 54 47 41 46 43 45 42 41 47 52 53 53 53 56 51 50 50 53 57 59 59 57 56 56 55 55 56 57 57 56 56
53 58 57 59 59 60 61 58 57 57 54 61 54 55 37 40 43 42 38 38 38 38 44 47 52 54 57 60 58 55 54 57 59 58 59 59 58 57 57 57 58 58 57 55
49 49 50 53 53 54 60 57 57 54 54 54 55 45 43 46 47 42 42 38 34 33 36 42 43 47 49 56 61 61 57 57 60 61 60 60 59 59 59 59 59 57 55 52
44 46 48 51 54 59 56 55 53 57 53 54 52 48 47 51 51 45 42 43 41 38 34 35 37 41 43 45 51 56 59 59 61 63 63 64 63 62 62 60 58 56 54 53
33 35 40 43 49 54 54 52 52 54 56 56 49 46 50 55 56 51 52 50 49 46 44 42 40 45 48 50 52 55 57 57 59 63 66 63 63 62 61 61 61 58 57 56
35 34 37 43 46 50 46 43 46 51 57 49 53 56 59 62 61 50 58 57 56 56 54 51 51 46 48 53 56 57 56 57 58 58 64 66 64 61 61 61 61 59 57 56
41 41 42 40 44 50 49 41 43 51 44 46 50 56 61 64 61 57 62 63 63 61 60 58 57 56 51 56 61 62 61 58 60 63 63 65 66 68 68 67 64 62 61 59
43 45 50 48 49 52 49 47 54 52 50 56 57 56 58 63 63 63 65 65 66 66 65 64 64 64 66 62 63 67 67 65 62 65 68 65 63 65 65 64 61 63 65 62
47 45 48 52 55 59 63 61 61 61 60 63 61 60 61 64 64 66 66 67 69 72 74 75 74 70 72 73 71 67 70 73 71 68 64 62 62 63 65 67 64 64 65 62
45 45 50 52 53 56 58 61 64 62 65 66 70 66 65 65 65 67 68 70 72 75 77 81 80 80 78 76 77 72 71 78 78 77 72 68 67 68 68 69 68 64 63 63
48 50 52 55 54 55 59 62 62 64 65 70 74 74 74 72 68 71 71 69 65 65 67 74 70 77 72 63 72 68 66 75 79 78 69 62 64 66 66 68 68 64 65 66
49 52 55 56 57 58 57 60 63 65 66 69 72 71 73 77 78 75 73 74 71 71 66 65 60 63 63 64 61 59 67 66 71 72 66 62 65 65 63 64 66 63 65 64
Wind_Direction
233 229 231 227 226 238 234 235 235 233 233 237 243 246 236 236 238 236 234 231 231 237 246 242 243 242 242 246 249 251 252 254 261 263 266 266 263 270 277 273 270 267 267 270
225 219 220 215 226 229 231 233 235 232 232 235 237 245 236 238 239 241 241 239 235 235 244 247 245 244 241 247 251 254 259 258 255 259 262 266 271 277 274 273 266 265 270 276
223 215 215 222 224 217 225 232 236 229 225 227 232 241 234 236 239 238 241 243 241 241 241 248 249 243 247 252 249 252 256 259 260 260 264 267 271 273 270 267 269 275 283 281
229 227 228 235 224 223 224 231 231 226 234 232 236 241 239 235 238 238 239 244 246 245 242 244 245 243 245 249 251 251 254 262 264 265 266 267 269 273 273 274 274 276 278 277
226 231 237 242 232 247 241 231 231 233 234 234 236 244 236 235 237 240 239 241 242 245 245 243 241 238 241 248 251 249 249 253 261 265 263 261 257 261 264 268 271 272 272 274
226 229 233 234 233 235 246 243 233 226 224 228 228 240 243 228 233 234 239 239 238 241 244 245 243 243 242 244 247 247 250 254 261 264 266 263 254 253 258 261 263 267 270 272
216 218 222 227 226 228 236 241 245 237 231 226 226 232 245 226 232 235 239 239 239 239 239 240 243 249 250 245 243 245 247 252 257 260 260 261 261 260 258 259 260 263 264 266
220 220 217 222 223 228 231 236 241 251 240 231 239 229 237 231 228 229 234 235 239 240 239 240 242 246 250 248 246 246 245 248 251 255 254 256 257 263 262 261 262 262 266 271
222 215 214 215 219 228 238 241 242 247 251 247 241 229 232 228 222 230 230 232 234 238 243 244 246 248 252 253 250 248 246 247 248 252 252 255 257 258 261 261 263 268 271 271
213 226 226 230 233 234 235 238 246 246 251 251 242 226 228 237 238 238 239 241 241 245 250 251 247 246 249 249 250 251 249 247 249 249 249 253 254 258 259 261 264 266 268 272
237 233 235 233 234 238 240 241 246 253 249 252 248 239 235 238 240 235 236 239 242 244 246 250 253 251 244 243 243 246 248 249 250 249 250 249 251 254 257 260 264 268 269 270
237 236 237 240 239 241 242 242 238 237 240 245 251 241 238 239 243 241 236 238 236 228 230 234 241 241 245 243 242 242 244 245 247 249 249 251 254 255 255 257 261 263 265 267
236 238 239 241 242 242 243 243 244 241 245 246 247 238 241 243 244 243 232 229 227 224 225 230 237 238 241 240 240 240 240 244 244 246 248 250 253 254 256 256 259 264 265 267
235 237 241 245 249 249 247 247 246 246 249 250 252 249 245 251 249 245 241 235 231 231 229 237 240 237 239 243 243 241 241 240 242 244 246 247 248 251 254 257 261 264 266 268
236 239 241 241 243 245 243 244 245 247 246 251 247 248 241 238 241 238 238 240 237 237 240 243 245 245 243 247 245 245 242 242 242 243 244 246 249 251 254 258 261 263 266 268
239 239 240 241 242 244 245 245 247 246 246 249 243 241 232 238 233 232 229 232 239 243 243 244 244 242 241 244 247 248 247 244 243 244 246 247 248 250 252 255 259 263 265 268
238 239 239 241 243 244 245 247 248 250 246 250 248 235 216 238 236 230 235 240 241 246 246 245 248 249 250 247 245 244 246 247 246 245 245 247 248 250 251 254 257 259 262 265
236 239 241 242 244 246 247 246 247 248 248 247 244 232 221 239 239 237 242 244 247 248 248 250 251 251 251 248 251 252 246 244 245 247 246 247 248 251 253 255 256 259 263 265
242 244 249 249 248 249 246 248 249 250 245 249 248 236 236 243 242 233 246 247 249 249 251 252 251 251 253 254 251 249 251 251 250 250 246 245 248 249 252 255 257 259 262 265
225 225 230 239 252 254 243 251 257 257 245 251 252 246 245 250 244 228 250 250 251 253 253 253 254 255 260 261 258 254 253 256 254 253 251 251 249 251 253 256 258 259 261 265
249 252 245 247 253 248 245 250 252 252 245 259 252 245 244 246 245 235 249 250 254 256 257 261 264 263 261 262 266 267 261 256 258 253 252 256 259 260 261 261 262 262 265 269
255 259 256 258 262 254 253 258 255 253 245 253 254 246 243 246 247 243 248 251 257 260 260 262 262 265 267 264 260 263 264 262 253 253 255 258 261 262 265 267 267 267 265 267
261 263 264 263 265 254 261 263 265 259 248 248 252 254 251 245 245 247 247 250 254 258 262 263 262 261 265 268 266 263 262 255 254 250 253 257 262 265 266 265 265 264 265 267
261 261 261 262 264 262 258 264 264 264 257 253 250 249 252 252 250 248 248 249 252 256 258 261 263 264 263 261 262 262 254 253 252 254 254 257 261 263 263 262 262 262 263 264
266 264 264 264 264 263 262 265 265 265 263 259 257 256 254 251 250 253 253 255 255 255 256 259 263 262 263 262 260 256 253 252 251 251 251 253 256 260 260 258 258 260 260 263
271 273 273 270 267 266 261 262 263 262 261 262 262 260 262 262 259 258 258 257 253 253 256 259 260 263 261 261 253 257 252 246 246 248 252 251 250 253 255 255 257 258 260 262